Total_Precipitation_Accumulation
0.00 0.00 0.00 0.00 0.00 0.00 0.00 0.01 0.01 0.02 0.03 0.02 0.05 0.05 0.09 0.10 0.06 0.07 0.08 0.09 0.15 0.14 0.13 0.09 0.06 0.07 0.07 0.04 0.04 0.02 0.00 0.00 0.00 0.00 0.00 0.00 0.00 0.00 0.00 0.00 0.00 0.00 0.00
0.00 0.00 0.00 0.00 0.00 0.00 0.00 0.00 0.01 0.03 0.05 0.06 0.06 0.07 0.09 0.06 0.06 0.05 0.04 0.11 0.16 0.22 0.17 0.14 0.11 0.07 0.07 0.08 0.09 0.06 0.03 0.01 0.01 0.00 0.00 0.00 0.00 0.00 0.00 0.00 0.00 0.00 0.00
0.00 0.00 0.00 0.00 0.00 0.00 0.00 0.00 0.00 0.00 0.03 0.07 0.10 0.12 0.15 0.12 0.09 0.09 0.09 0.09 0.15 0.21 0.18 0.14 0.13 0.10 0.11 0.07 0.07 0.10 0.09 0.06 0.03 0.01 0.01 0.00 0.00 0.00 0.00 0.00 0.00 0.00 0.00
0.00 0.00 0.00 0.00 0.00 0.00 0.00 0.00 0.00 0.00 0.00 0.01 0.05 0.09 0.10 0.09 0.09 0.13 0.12 0.08 0.07 0.14 0.21 0.22 0.22 0.19 0.17 0.13 0.15 0.13 0.10 0.13 0.11 0.07 0.03 0.04 0.03 0.01 0.00 0.00 0.00 0.00 0.00
0.00 0.00 0.00 0.00 0.00 0.00 0.00 0.00 0.00 0.00 0.00 0.00 0.00 0.03 0.09 0.10 0.11 0.14 0.20 0.18 0.16 0.18 0.22 0.22 0.21 0.24 0.29 0.27 0.28 0.28 0.26 0.17 0.16 0.16 0.10 0.13 0.15 0.11 0.07 0.04 0.01 0.00 0.00
0.00 0.00 0.00 0.00 0.00 0.00 0.00 0.00 0.00 0.00 0.00 0.00 0.00 0.00 0.02 0.10 0.22 0.26 0.31 0.36 0.40 0.47 0.46 0.39 0.35 0.36 0.41 0.41 0.42 0.44 0.44 0.44 0.44 0.54 0.56 0.47 0.44 0.41 0.34 0.31 0.19 0.09 0.07
0.00 0.00 0.00 0.00 0.00 0.00 0.00 0.00 0.00 0.00 0.00 0.00 0.00 0.00 0.00 0.00 0.05 0.18 0.29 0.40 0.45 0.46 0.46 0.57 0.69 0.77 0.93 0.99 1.12 1.25 1.13 1.10 1.20 1.04 0.95 0.89 0.72 0.53 0.42 0.38 0.34 0.25 0.18
0.00 0.00 0.00 0.00 0.00 0.00 0.00 0.00 0.00 0.00 0.00 0.00 0.00 0.00 0.00 0.00 0.03 0.11 0.12 0.13 0.19 0.24 0.29 0.41 0.66 0.84 1.02 1.29 1.52 1.60 1.55 1.53 1.48 1.40 1.20 1.01 0.92 0.75 0.55 0.37 0.30 0.35 0.34
0.00 0.00 0.00 0.00 0.00 0.00 0.00 0.00 0.00 0.00 0.00 0.00 0.00 0.00 0.00 0.00 0.00 0.00 0.02 0.05 0.07 0.12 0.18 0.20 0.18 0.20 0.34 0.51 0.83 1.12 1.16 1.21 1.09 0.88 0.77 0.69 0.56 0.50 0.41 0.34 0.33 0.27 0.34
0.00 0.00 0.00 0.00 0.00 0.00 0.00 0.00 0.00 0.00 0.00 0.00 0.00 0.00 0.00 0.00 0.00 0.00 0.01 0.03 0.07 0.11 0.13 0.11 0.10 0.10 0.17 0.35 0.51 0.71 0.82 0.91 0.87 0.79 0.70 0.57 0.42 0.36 0.30 0.23 0.17 0.11 0.14
0.00 0.00 0.00 0.00 0.00 0.00 0.00 0.00 0.00 0.00 0.00 0.00 0.00 0.00 0.00 0.00 0.00 0.03 0.04 0.06 0.09 0.14 0.25 0.24 0.20 0.15 0.17 0.26 0.32 0.40 0.48 0.52 0.53 0.54 0.56 0.55 0.47 0.46 0.37 0.24 0.16 0.12 0.09
0.00 0.00 0.00 0.00 0.00 0.00 0.00 0.00 0.00 0.00 0.00 0.00 0.00 0.00 0.00 0.00 0.00 0.02 0.04 0.10 0.18 0.24 0.27 0.20 0.20 0.17 0.19 0.29 0.29 0.30 0.33 0.36 0.42 0.44 0.52 0.57 0.62 0.61 0.56 0.45 0.32 0.25 0.18
0.00 0.00 0.00 0.00 0.00 0.00 0.00 0.00 0.00 0.00 0.00 0.00 0.00 0.00 0.00 0.00 0.00 0.00 0.00 0.01 0.01 0.04 0.03 0.09 0.18 0.29 0.33 0.30 0.27 0.28 0.29 0.30 0.32 0.36 0.43 0.51 0.58 0.68 0.69 0.63 0.54 0.52 0.49
0.00 0.00 0.00 0.00 0.00 0.00 0.00 0.00 0.00 0.00 0.00 0.00 0.00 0.00 0.00 0.00 0.00 0.00 0.00 0.00 0.01 0.03 0.05 0.15 0.24 0.30 0.29 0.35 0.35 0.35 0.37 0.39 0.41 0.40 0.42 0.48 0.53 0.58 0.65 0.71 0.70 0.68 0.69
0.00 0.00 0.00 0.00 0.00 0.00 0.00 0.00 0.00 0.00 0.00 0.00 0.00 0.00 0.00 0.00 0.00 0.00 0.00 0.00 0.01 0.02 0.04 0.07 0.10 0.16 0.22 0.34 0.35 0.36 0.42 0.45 0.47 0.48 0.52 0.52 0.56 0.68 0.75 0.77 0.77 0.77 0.78
0.00 0.00 0.00 0.00 0.00 0.00 0.00 0.00 0.00 0.00 0.00 0.00 0.00 0.00 0.00 0.00 0.00 0.00 0.00 0.00 0.00 0.00 0.00 0.01 0.04 0.10 0.17 0.35 0.46 0.41 0.40 0.42 0.44 0.44 0.47 0.54 0.60 0.67 0.78 0.80 0.82 0.78 0.68
0.00 0.00 0.00 0.00 0.00 0.00 0.00 0.00 0.00 0.00 0.00 0.00 0.00 0.00 0.00 0.00 0.00 0.00 0.00 0.00 0.00 0.00 0.00 0.01 0.01 0.04 0.10 0.23 0.36 0.35 0.33 0.39 0.41 0.41 0.40 0.45 0.55 0.60 0.62 0.69 0.77 0.84 0.81
0.00 0.00 0.00 0.00 0.00 0.00 0.00 0.00 0.00 0.00 0.00 0.00 0.00 0.00 0.00 0.00 0.00 0.00 0.00 0.00 0.00 0.00 0.01 0.03 0.03 0.04 0.09 0.23 0.29 0.31 0.27 0.28 0.30 0.31 0.35 0.36 0.42 0.50 0.53 0.52 0.53 0.57 0.59
0.00 0.00 0.00 0.00 0.00 0.00 0.00 0.00 0.00 0.00 0.00 0.00 0.00 0.00 0.00 0.00 0.00 0.00 0.00 0.01 0.02 0.02 0.02 0.02 0.02 0.03 0.04 0.14 0.19 0.25 0.22 0.28 0.33 0.30 0.31 0.35 0.36 0.39 0.39 0.39 0.40 0.45 0.49
0.00 0.00 0.00 0.00 0.00 0.00 0.00 0.00 0.00 0.00 0.00 0.00 0.00 0.00 0.00 0.00 0.01 0.02 0.02 0.02 0.03 0.00 0.00 0.00 0.00 0.03 0.03 0.09 0.12 0.21 0.20 0.19 0.21 0.23 0.30 0.37 0.40 0.37 0.30 0.29 0.27 0.28 0.33
0.00 0.00 0.00 0.00 0.00 0.00 0.00 0.00 0.00 0.00 0.00 0.00 0.00 0.01 0.01 0.02 0.01 0.01 0.01 0.01 0.00 0.00 0.00 0.00 0.00 0.01 0.03 0.04 0.03 0.06 0.10 0.20 0.31 0.32 0.31 0.33 0.34 0.33 0.28 0.21 0.20 0.17 0.21
0.00 0.00 0.00 0.00 0.00 0.00 0.00 0.00 0.00 0.00 0.00 0.01 0.02 0.02 0.02 0.02 0.01 0.00 0.00 0.00 0.00 0.00 0.00 0.00 0.00 0.01 0.03 0.09 0.08 0.07 0.08 0.14 0.24 0.32 0.34 0.41 0.38 0.29 0.20 0.16 0.13 0.12 0.14
0.00 0.00 0.00 0.00 0.00 0.00 0.00 0.00 0.01 0.01 0.02 0.03 0.02 0.01 0.01 0.01 0.00 0.00 0.00 0.00 0.00 0.00 0.00 0.00 0.00 0.00 0.02 0.06 0.16 0.25 0.17 0.16 0.13 0.24 0.36 0.41 0.35 0.26 0.20 0.14 0.09 0.07 0.06
0.00 0.00 0.00 0.00 0.00 0.01 0.01 0.01 0.02 0.02 0.02 0.01 0.01 0.00 0.00 0.01 0.00 0.01 0.01 0.01 0.01 0.01 0.00 0.01 0.02 0.02 0.04 0.06 0.10 0.18 0.31 0.30 0.28 0.39 0.44 0.37 0.27 0.20 0.19 0.13 0.08 0.05 0.04
0.00 0.00 0.01 0.01 0.01 0.01 0.01 0.01 0.02 0.03 0.02 0.02 0.01 0.01 0.03 0.04 0.04 0.03 0.02 0.02 0.02 0.03 0.01 0.01 0.02 0.03 0.04 0.06 0.09 0.13 0.14 0.16 0.21 0.27 0.32 0.30 0.20 0.18 0.12 0.07 0.06 0.03 0.01
0.00 0.01 0.01 0.01 0.01 0.01 0.01 0.02 0.02 0.03 0.03 0.01 0.00 0.02 0.01 0.00 0.00 0.00 0.01 0.01 0.01 0.03 0.02 0.03 0.05 0.07 0.09 0.15 0.23 0.24 0.25 0.27 0.25 0.22 0.23 0.24 0.23 0.22 0.15 0.09 0.07 0.02 0.00